Regional Weather Roundup
Issued by NWS Glasgow, MT

Home | Current Version | Previous Version | Text Only | Print | Product List | Glossary On
Versions: 1 2 3 4 5 6 7 8 9 10 11 12 13 14 15 16 17 18 19 20 21 22 23 24 25 26 27 28 29 30 31 32 33 34 35 36 37 38 39 40 41 42 43 44 45 46 47 48 49 50
000
ASUS45 KGGW 060715
RWRGGW
HOURLY WEATHER ROUNDUP FOR NORTHEAST MONTANA
NATIONAL WEATHER SERVICE GLASGOW MONTANA
100 AM MDT WED MAY 06 2015

NOTE: "FAIR" INDICATES FEW OR NO CLOUDS BELOW 12,000 FEET WITH NO
SIGNIFICANT WEATHER AND/OR OBSTRUCTIONS TO VISISBILITY.

NORTHEAST MONTANA


CITY           SKY/WX    TMP DP  RH WIND       PRES   REMARKS
GLASGOW        MOCLDY    62  49  62 VRB6      29.66F
WOLF POINT     PTCLDY    59  50  72 E8        29.68S
JORDAN           N/A     57  47  69 NW8       29.69R
WINNETT          N/A     54  47  77 W10G20      N/A
SIDNEY         CLEAR     59  48  67 SE8       29.72S
GLENDIVE       CLEAR     57  48  72 SE10      29.72S
MALTA            N/A     59  47  64 W8G18       N/A
SCOBEY           N/A     58  42  55 SE13      29.71F

FORT PECK REPORTS


CITY           SKY/WX    TMP DP  RH WIND       PRES   REMARKS
FORT PECK        N/A     60  50  69 SE21G32     N/A
THE PINES        N/A     64  45  49 NW9         N/A

SOUTHEAST MONTANA


CITY           SKY/WX    TMP DP  RH WIND       PRES   REMARKS
BILLINGS       LGT RAIN  56  47  71 NW9       29.75S
MILES CITY     PTCLDY    59  49  69 SE13      29.68R
BAKER          PTCLDY    54  49  83 SE12      29.75S
LIVINGSTON     CLOUDY    53  42  66 VRB3      29.81S

CENTRAL MONTANA


CITY           SKY/WX    TMP DP  RH WIND       PRES   REMARKS
HAVRE          LGT RAIN  52  50  93 S7        29.74S
LEWISTOWN      LGT RAIN  51  47  86 S5        29.80S
GREAT FALLS    CLOUDY    48  46  93 W3        29.81R
CUT BANK       PTCLDY    41  21  44 W15       29.83R
HELENA         CLOUDY    51  35  54 W9        29.84S
BUTTE          CLOUDY    40  34  79 W7        29.90S
BOZEMAN        CLOUDY    51  42  71 CALM      29.83S

WESTERN MONTANA


CITY           SKY/WX    TMP DP  RH WIND       PRES   REMARKS
MISSOULA       CLEAR     39  24  55 NW3       29.94R
KALISPELL      NOT AVBL

NORTH DAKOTA


CITY           SKY/WX    TMP DP  RH WIND       PRES   REMARKS
WILLISTON      CLEAR     61  50  67 SE10      29.74F
DICKINSON      PTCLDY    54  51  90 SE13      29.76F
MINOT          CLEAR     52  42  69 SE8       29.81F
BISMARCK       CLOUDY    59  32  36 S16       29.86S

SOUTHERN SASKATCHEWAN


CITY           SKY/WX    TMP DP  RH WIND       PRES   REMARKS
REGINA         PTCLDY    61  50  67 SE17      29.71S
MOOSE JAW      PTCLDY    63  52  67 S14       29.67S
ESTEVAN        PTCLDY    52  43  71 E9        29.77F
SWIFT CURRENT  CLOUDY    55  46  71 SE7       29.66F



USA.gov is the U.S. government's official web portal to all federal, state and local government web resources and services.